| time (UTC) | temp F | wind direction | speed MPH | gust MPH | rain 1hr in | rain 24hr in | rain mn in | humidity % | barometer mb |
| 20260508060505 | 43 | 143 | 1.0 | 3.0 | 0.00 | 0.03 | 0.00 | 93 | 1018.2 |
| 20260508060005 | 43 | 171 | 3.0 | 6.0 | 0.00 | 0.04 | 0.00 | 93 | 1018.1 |
| 20260508055506 | 43 | 174 | 3.0 | 6.0 | 0.00 | 0.04 | 0.00 | 93 | 1018.1 |
| 20260508055005 | 44 | 174 | 2.0 | 6.0 | 0.00 | 0.04 | 0.00 | 93 | 1018.0 |
| 20260508054006 | 43 | 156 | 1.0 | 3.0 | 0.00 | 0.05 | 0.00 | 93 | 1017.9 |
| 20260508053005 | 43 | 150 | 1.0 | 2.0 | 0.00 | 0.06 | 0.00 | 93 | 1017.9 |
| 20260508052506 | 43 | 102 | 1.0 | 1.0 | 0.00 | 0.06 | 0.00 | 93 | 1017.8 |
| 20260508052005 | 43 | 102 | 1.0 | 3.0 | 0.00 | 0.06 | 0.00 | 93 | 1017.8 |
| 20260508051006 | 43 | 178 | 0.0 | 2.0 | 0.00 | 0.06 | 0.00 | 92 | 1017.8 |
| 20260508050506 | 43 | 178 | 0.0 | 1.0 | 0.00 | 0.06 | 0.00 | 92 | 1017.7 |
| 20260508050006 | 42 | 178 | 0.0 | 2.0 | 0.00 | 0.06 | 0.00 | 92 | 1017.7 |
| 20260508045505 | 42 | 178 | 0.0 | 2.0 | 0.00 | 0.06 | 0.00 | 93 | 1017.6 |
| 20260508045005 | 42 | 177 | 1.0 | 3.0 | 0.00 | 0.06 | 0.00 | 92 | 1017.6 |
| 20260508044506 | 42 | 175 | 1.0 | 2.0 | 0.00 | 0.06 | 0.00 | 92 | 1017.6 |
| 20260508044005 | 42 | 175 | 1.0 | 2.0 | 0.00 | 0.06 | 0.00 | 92 | 1017.6 |
| 20260508043505 | 42 | 173 | 1.0 | 3.0 | 0.00 | 0.07 | 0.00 | 92 | 1017.6 |
| 20260508043006 | 42 | 120 | 1.0 | 2.0 | 0.00 | 0.07 | 0.00 | 92 | 1017.4 |
| 20260508042505 | 42 | 94 | 1.0 | 2.0 | 0.00 | 0.07 | 0.00 | 92 | 1017.4 |
| 20260508042006 | 42 | 94 | 0.0 | 2.0 | 0.00 | 0.07 | 0.00 | 92 | 1017.4 |
| 20260508041508 | 42 | 94 | 0.0 | 2.0 | 0.00 | 0.07 | 0.00 | 92 | 1017.5 |
| 20260508041005 | 42 | 93 | 1.0 | 2.0 | 0.00 | 0.07 | 0.00 | 92 | 1017.6 |
| 20260508040006 | 42 | 44 | 0.0 | 0.0 | 0.00 | 0.08 | 0.00 | 92 | 1017.6 |
| 20260508035505 | 42 | 44 | 0.0 | 0.0 | 0.00 | 0.08 | 0.00 | 92 | 1017.6 |
| 20260508035005 | 42 | 44 | 0.0 | 1.0 | 0.00 | 0.08 | 0.00 | 92 | 1017.4 |
| 20260508034506 | 42 | 44 | 0.0 | 2.0 | 0.00 | 0.08 | 0.00 | 92 | 1017.3 |
| 20260508034005 | 42 | 44 | 1.0 | 1.0 | 0.00 | 0.09 | 0.00 | 92 | 1017.2 |
| 20260508033505 | 42 | 44 | 0.0 | 1.0 | 0.00 | 0.09 | 0.00 | 92 | 1017.2 |
| 20260508032505 | 43 | 44 | 0.0 | 1.0 | 0.00 | 0.09 | 0.00 | 92 | 1017.2 |
| 20260508032006 | 43 | 44 | 0.0 | 0.0 | 0.00 | 0.09 | 0.00 | 92 | 1017.2 |
| 20260508031505 | 43 | 44 | 0.0 | 1.0 | 0.00 | 0.09 | 0.00 | 92 | 1017.2 |
| 20260508030505 | 43 | 44 | 0.0 | 1.0 | 0.00 | 0.09 | 0.00 | 92 | 1017.1 |
| 20260508030006 | 43 | 44 | 0.0 | 0.0 | 0.00 | 0.09 | 0.00 | 92 | 1017.2 |
| 20260508025506 | 43 | 44 | 0.0 | 0.0 | 0.00 | 0.09 | 0.00 | 92 | 1017.2 |
| 20260508025006 | 43 | 44 | 0.0 | 2.0 | 0.00 | 0.10 | 0.00 | 92 | 1017.1 |
| 20260508024006 | 43 | 44 | 0.0 | 2.0 | 0.00 | 0.11 | 0.00 | 92 | 1017.1 |
| 20260508023505 | 43 | 44 | 0.0 | 2.0 | 0.00 | 0.11 | 0.00 | 92 | 1017.2 |
| 20260508023005 | 43 | 44 | 0.0 | 2.0 | 0.00 | 0.12 | 0.00 | 92 | 1017.3 |
| 20260508022506 | 43 | 44 | 0.0 | 0.0 | 0.00 | 0.13 | 0.00 | 92 | 1017.2 |
| 20260508022005 | 43 | 44 | 0.0 | 2.0 | 0.00 | 0.13 | 0.00 | 92 | 1017.2 |
| 20260508021506 | 43 | 44 | 0.0 | 1.0 | 0.00 | 0.14 | 0.00 | 92 | 1017.2 |
| 20260508021005 | 43 | 44 | 0.0 | 2.0 | 0.00 | 0.15 | 0.00 | 92 | 1017.2 |
| 20260508020506 | 43 | 44 | 0.0 | 1.0 | 0.00 | 0.15 | 0.00 | 92 | 1017.2 |
| 20260508020007 | 44 | 44 | 0.0 | 2.0 | 0.00 | 0.16 | 0.00 | 92 | 1017.2 |
| 20260508015505 | 44 | 44 | 0.0 | 1.0 | 0.00 | 0.16 | 0.00 | 92 | 1017.2 |
| 20260508015006 | 44 | 44 | 0.0 | 0.0 | 0.00 | 0.16 | 0.00 | 92 | 1017.2 |
| 20260508014505 | 44 | 44 | 0.0 | 0.0 | 0.00 | 0.16 | 0.00 | 92 | 1017.2 |
| 20260508014006 | 44 | 44 | 0.0 | 0.0 | 0.00 | 0.16 | 0.00 | 92 | 1017.3 |
| 20260508013505 | 44 | 44 | 0.0 | 0.0 | 0.00 | 0.16 | 0.00 | 92 | 1017.2 |
| 20260508013006 | 44 | 44 | 0.0 | 2.0 | 0.00 | 0.16 | 0.00 | 92 | 1017.2 |
| 20260508012505 | 44 | 44 | 0.0 | 1.0 | 0.00 | 0.16 | 0.00 | 92 | 1017.3 |
| 20260508012005 | 44 | 44 | 1.0 | 3.0 | 0.00 | 0.16 | 0.00 | 92 | 1017.2 |
| 20260508011005 | 44 | 5 | 0.0 | 0.0 | 0.00 | 0.16 | 0.00 | 92 | 1017.3 |
| 20260508010505 | 44 | 5 | 0.0 | 0.0 | 0.00 | 0.16 | 0.00 | 92 | 1017.2 |
| 20260508010006 | 44 | 5 | 1.0 | 2.0 | 0.00 | 0.16 | 0.00 | 92 | 1017.2 |
| 20260508005505 | 45 | 5 | 0.0 | 2.0 | 0.00 | 0.16 | 0.00 | 92 | 1017.2 |
| 20260508005005 | 45 | 3 | 2.0 | 3.0 | 0.00 | 0.17 | 0.00 | 92 | 1017.2 |
| 20260508003505 | 45 | 284 | 1.0 | 2.0 | 0.00 | 0.17 | 0.00 | 92 | 1017.4 |
| 20260508003006 | 45 | 281 | 0.0 | 2.0 | 0.00 | 0.17 | 0.00 | 92 | 1017.4 |
| 20260508002505 | 45 | 281 | 1.0 | 1.0 | 0.00 | 0.17 | 0.00 | 92 | 1017.4 |
| 20260508002005 | 45 | 281 | 0.0 | 2.0 | 0.00 | 0.17 | 0.00 | 92 | 1017.5 |
| 20260508001505 | 44 | 281 | 1.0 | 1.0 | 0.00 | 0.18 | 0.00 | 92 | 1017.5 |
| 20260508001005 | 43 | 281 | 0.0 | 2.0 | 0.00 | 0.18 | 0.00 | 92 | 1017.4 |
| 20260508000506 | 42 | 281 | 0.0 | 2.0 | 0.00 | 0.19 | 0.00 | 91 | 1017.5 |
| 20260508000005 | 42 | 281 | 0.0 | 2.0 | 0.00 | 0.20 | 0.00 | 91 | 1017.6 |
| 20260507235505 | 43 | 281 | 0.0 | 0.0 | 0.00 | 0.20 | 0.00 | 91 | 1017.6 |
| 20260507235005 | 43 | 281 | 0.0 | 1.0 | 0.00 | 0.20 | 0.00 | 91 | 1017.6 |
| 20260507234505 | 43 | 281 | 1.0 | 2.0 | 0.00 | 0.20 | 0.00 | 91 | 1017.6 |
| 20260507233506 | 43 | 281 | 2.0 | 2.0 | 0.00 | 0.21 | 0.00 | 91 | 1017.7 |
| 20260507232507 | 43 | 281 | 1.0 | 2.0 | 0.00 | 0.22 | 0.00 | 92 | 1017.9 |
| 20260507232006 | 43 | 281 | 2.0 | 3.0 | 0.00 | 0.23 | 0.00 | 91 | 1017.7 |
| 20260507231505 | 43 | 281 | 1.0 | 2.0 | 0.00 | 0.23 | 0.00 | 91 | 1017.7 |
| 20260507231005 | 43 | 281 | 0.0 | 2.0 | 0.00 | 0.24 | 0.00 | 91 | 1017.7 |
| 20260507230505 | 43 | 281 | 1.0 | 2.0 | 0.00 | 0.24 | 0.00 | 91 | 1017.6 |
| 20260507230006 | 43 | 281 | 0.0 | 1.0 | 0.00 | 0.24 | 0.00 | 91 | 1017.6 |
| 20260507225506 | 43 | 281 | 0.0 | 1.0 | 0.00 | 0.25 | 0.00 | 91 | 1017.6 |
| 20260507224506 | 43 | 281 | 0.0 | 1.0 | 0.00 | 0.27 | 0.00 | 91 | 1017.5 |
| 20260507224005 | 43 | 281 | 2.0 | 2.0 | 0.00 | 0.28 | 0.00 | 91 | 1017.6 |
| 20260507223505 | 44 | 281 | 2.0 | 3.0 | 0.00 | 0.29 | 0.00 | 91 | 1017.6 |
| 20260507223005 | 44 | 281 | 0.0 | 2.0 | 0.00 | 0.31 | 0.00 | 91 | 1017.6 |
| 20260507222505 | 43 | 281 | 0.0 | 2.0 | 0.00 | 0.32 | 0.00 | 91 | 1017.6 |
| 20260507222005 | 43 | 281 | 0.0 | 2.0 | 0.00 | 0.34 | 0.00 | 91 | 1017.5 |
| 20260507221505 | 43 | 281 | 0.0 | 2.0 | 0.00 | 0.35 | 0.00 | 91 | 1017.6 |
| 20260507221005 | 44 | 281 | 0.0 | 2.0 | 0.00 | 0.36 | 0.00 | 91 | 1017.6 |
| 20260507220506 | 43 | 281 | 0.0 | 2.0 | 0.00 | 0.37 | 0.00 | 91 | 1017.6 |
| 20260507220006 | 44 | 281 | 0.0 | 1.0 | 0.00 | 0.38 | 0.00 | 91 | 1017.6 |
| 20260507215505 | 44 | 281 | 1.0 | 3.0 | 0.00 | 0.39 | 0.38 | 91 | 1017.5 |
| 20260507215005 | 44 | 281 | 2.0 | 3.0 | 0.00 | 0.39 | 0.38 | 91 | 1017.5 |
| 20260507214505 | 43 | 281 | 1.0 | 2.0 | 0.00 | 0.40 | 0.38 | 91 | 1017.4 |
| 20260507214005 | 44 | 281 | 2.0 | 3.0 | 0.00 | 0.41 | 0.38 | 91 | 1017.3 |
| 20260507213504 | 44 | 280 | 2.0 | 3.0 | 0.00 | 0.43 | 0.38 | 91 | 1017.3 |
| 20260507213009 | 44 | 279 | 2.0 | 3.0 | 0.00 | 0.43 | 0.38 | 91 | 1017.3 |
| 20260507212505 | 43 | 277 | 2.0 | 2.0 | 0.00 | 0.43 | 0.38 | 91 | 1017.3 |
| 20260507212005 | 44 | 277 | 1.0 | 2.0 | 0.00 | 0.43 | 0.38 | 90 | 1017.3 |
| 20260507211005 | 44 | 278 | 1.0 | 2.0 | 0.00 | 0.44 | 0.38 | 91 | 1017.2 |
| 20260507210505 | 44 | 278 | 1.0 | 2.0 | 0.00 | 0.46 | 0.38 | 90 | 1017.2 |
| 20260507210006 | 44 | 278 | 1.0 | 3.0 | 0.00 | 0.46 | 0.38 | 91 | 1017.1 |
| 20260507205005 | 44 | 280 | 2.0 | 3.0 | 0.00 | 0.46 | 0.38 | 90 | 1017.1 |
| 20260507204505 | 44 | 277 | 2.0 | 3.0 | 0.00 | 0.47 | 0.38 | 90 | 1017.1 |
| 20260507204004 | 44 | 277 | 1.0 | 1.0 | 0.00 | 0.47 | 0.38 | 90 | 1017.0 |
| 20260507203505 | 45 | 277 | 1.0 | 3.0 | 0.00 | 0.47 | 0.38 | 90 | 1017.0 |
| 20260507203005 | 45 | 277 | 2.0 | 3.0 | 0.00 | 0.47 | 0.38 | 90 | 1017.0 |
| 20260507202505 | 45 | 280 | 2.0 | 3.0 | 0.00 | 0.47 | 0.38 | 90 | 1016.9 |
| 20260507202005 | 45 | 282 | 2.0 | 3.0 | 0.00 | 0.47 | 0.38 | 90 | 1016.9 |
| 20260507200505 | 46 | 277 | 1.0 | 2.0 | 0.00 | 0.47 | 0.38 | 90 | 1016.8 |
| 20260507200006 | 46 | 279 | 2.0 | 2.0 | 0.00 | 0.47 | 0.38 | 90 | 1016.7 |
| 20260507195505 | 46 | 279 | 1.0 | 2.0 | 0.00 | 0.47 | 0.38 | 90 | 1016.6 |
| 20260507195005 | 46 | 279 | 2.0 | 2.0 | 0.00 | 0.48 | 0.38 | 90 | 1016.6 |
| 20260507194504 | 47 | 281 | 1.0 | 2.0 | 0.00 | 0.49 | 0.38 | 90 | 1016.6 |
| 20260507194005 | 47 | 281 | 1.0 | 2.0 | 0.00 | 0.49 | 0.38 | 89 | 1016.5 |
| 20260507193504 | 47 | 281 | 1.0 | 2.0 | 0.00 | 0.50 | 0.38 | 89 | 1016.5 |
| 20260507193005 | 47 | 281 | 2.0 | 2.0 | 0.00 | 0.50 | 0.38 | 89 | 1016.5 |
| 20260507192505 | 47 | 281 | 1.0 | 1.0 | 0.00 | 0.50 | 0.38 | 89 | 1016.5 |
| 20260507192004 | 47 | 281 | 0.0 | 1.0 | 0.00 | 0.50 | 0.38 | 89 | 1016.4 |
| 20260507191505 | 48 | 281 | 1.0 | 2.0 | 0.00 | 0.50 | 0.38 | 89 | 1016.4 |
| 20260507191005 | 48 | 300 | 1.0 | 3.0 | 0.00 | 0.50 | 0.38 | 89 | 1016.3 |
| 20260507190505 | 48 | 325 | 1.0 | 2.0 | 0.00 | 0.51 | 0.38 | 89 | 1016.2 |
| 20260507190006 | 49 | 326 | 1.0 | 2.0 | 0.00 | 0.52 | 0.38 | 88 | 1016.2 |
| 20260507185504 | 49 | 327 | 0.0 | 1.0 | 0.00 | 0.52 | 0.38 | 88 | 1016.2 |
| 20260507185005 | 49 | 327 | 0.0 | 1.0 | 0.00 | 0.53 | 0.38 | 88 | 1016.2 |
| 20260507184504 | 49 | 327 | 0.0 | 0.0 | 0.00 | 0.54 | 0.38 | 88 | 1016.0 |
| 20260507184005 | 50 | 327 | 0.0 | 0.0 | 0.00 | 0.55 | 0.38 | 87 | 1016.0 |
| 20260507183005 | 50 | 327 | 0.0 | 1.0 | 0.00 | 0.55 | 0.38 | 86 | 1016.0 |
| 20260507182505 | 50 | 328 | 0.0 | 0.0 | 0.00 | 0.55 | 0.38 | 87 | 1015.9 |
| 20260507182005 | 51 | 328 | 0.0 | 1.0 | 0.00 | 0.55 | 0.38 | 87 | 1015.9 |
| 20260507181505 | 51 | 328 | 0.0 | 2.0 | 0.00 | 0.55 | 0.38 | 86 | 1015.8 |
| 20260507181005 | 51 | 328 | 0.0 | 1.0 | 0.00 | 0.55 | 0.38 | 85 | 1015.8 |
| 20260507180505 | 51 | 328 | 0.0 | 0.0 | 0.00 | 0.55 | 0.38 | 85 | 1015.8 |
| 20260507180006 | 51 | 328 | 0.0 | 0.0 | 0.00 | 0.55 | 0.38 | 84 | 1015.8 |
| 20260507175505 | 51 | 328 | 0.0 | 0.0 | 0.00 | 0.55 | 0.38 | 84 | 1015.7 |
| 20260507175005 | 51 | 328 | 0.0 | 0.0 | 0.00 | 0.55 | 0.38 | 84 | 1015.7 |
| 20260507174505 | 52 | 328 | 0.0 | 0.0 | 0.00 | 0.55 | 0.38 | 83 | 1015.8 |
| 20260507174005 | 52 | 328 | 0.0 | 0.0 | 0.00 | 0.55 | 0.38 | 81 | 1015.7 |
| 20260507173505 | 52 | 328 | 1.0 | 2.0 | 0.00 | 0.55 | 0.38 | 82 | 1015.7 |
| 20260507173005 | 52 | 327 | 0.0 | 0.0 | 0.00 | 0.55 | 0.38 | 80 | 1015.7 |
| 20260507172505 | 52 | 327 | 0.0 | 0.0 | 0.00 | 0.55 | 0.38 | 81 | 1015.7 |
| 20260507172005 | 52 | 327 | 0.0 | 0.0 | 0.00 | 0.55 | 0.38 | 80 | 1015.7 |
| 20260507171505 | 52 | 327 | 0.0 | 3.0 | 0.00 | 0.55 | 0.38 | 79 | 1015.6 |
| 20260507171005 | 52 | 330 | 0.0 | 2.0 | 0.00 | 0.55 | 0.38 | 80 | 1015.5 |
| 20260507170505 | 52 | 329 | 0.0 | 2.0 | 0.00 | 0.55 | 0.38 | 80 | 1015.6 |
| 20260507170006 | 52 | 333 | 2.0 | 3.0 | 0.00 | 0.55 | 0.38 | 80 | 1015.5 |
| 20260507165005 | 52 | 9 | 1.0 | 3.0 | 0.00 | 0.55 | 0.38 | 80 | 1015.5 |
| 20260507164504 | 52 | 236 | 2.0 | 3.0 | 0.00 | 0.55 | 0.38 | 79 | 1015.5 |
| 20260507164004 | 53 | 313 | 1.0 | 3.0 | 0.00 | 0.55 | 0.38 | 78 | 1015.6 |
| 20260507163505 | 53 | 5 | 0.0 | 0.0 | 0.00 | 0.55 | 0.38 | 79 | 1015.6 |
| 20260507163005 | 53 | 34 | 1.0 | 3.0 | 0.00 | 0.55 | 0.38 | 78 | 1015.5 |
| 20260507162505 | 53 | 11 | 3.0 | 3.0 | 0.00 | 0.55 | 0.38 | 78 | 1015.5 |
| 20260507162005 | 53 | 12 | 2.0 | 3.0 | 0.00 | 0.55 | 0.38 | 77 | 1015.5 |
| 20260507161505 | 53 | 352 | 2.0 | 3.0 | 0.00 | 0.55 | 0.38 | 77 | 1015.4 |
| 20260507161005 | 53 | 24 | 1.0 | 3.0 | 0.00 | 0.55 | 0.38 | 79 | 1015.5 |
| 20260507155504 | 53 | 329 | 2.0 | 5.0 | 0.00 | 0.55 | 0.38 | 78 | 1015.5 |
| 20260507154504 | 52 | 272 | 0.0 | 3.0 | 0.00 | 0.55 | 0.38 | 79 | 1015.4 |
| 20260507153004 | 53 | 352 | 2.0 | 3.0 | 0.00 | 0.55 | 0.38 | 81 | 1015.4 |
| 20260507152505 | 52 | 317 | 0.0 | 2.0 | 0.00 | 0.55 | 0.38 | 79 | 1015.3 |
| 20260507150505 | 52 | 321 | 1.0 | 2.0 | 0.00 | 0.55 | 0.38 | 81 | 1015.3 |
| 20260507150006 | 52 | 337 | 2.0 | 3.0 | 0.00 | 0.55 | 0.38 | 80 | 1015.4 |
| 20260507145505 | 52 | 347 | 3.0 | 5.0 | 0.00 | 0.55 | 0.38 | 81 | 1015.3 |
| 20260507145005 | 52 | 323 | 1.0 | 5.0 | 0.00 | 0.55 | 0.38 | 80 | 1015.3 |
| 20260507144504 | 52 | 3 | 3.0 | 5.0 | 0.00 | 0.55 | 0.38 | 82 | 1015.3 |
| 20260507144004 | 52 | 44 | 3.0 | 5.0 | 0.00 | 0.55 | 0.38 | 80 | 1015.2 |
| 20260507143004 | 52 | 23 | 1.0 | 5.0 | 0.00 | 0.55 | 0.38 | 83 | 1015.2 |
| 20260507142505 | 52 | 13 | 1.0 | 3.0 | 0.00 | 0.55 | 0.38 | 82 | 1015.3 |
| 20260507142005 | 52 | 350 | 2.0 | 3.0 | 0.00 | 0.55 | 0.38 | 83 | 1015.3 |
| 20260507141505 | 51 | 319 | 3.0 | 7.0 | 0.00 | 0.55 | 0.38 | 82 | 1015.3 |
| 20260507141006 | 51 | 352 | 3.0 | 7.0 | 0.00 | 0.55 | 0.38 | 81 | 1015.3 |
| 20260507140505 | 52 | 266 | 2.0 | 7.0 | 0.00 | 0.55 | 0.38 | 82 | 1015.2 |
| 20260507140006 | 51 | 304 | 3.0 | 6.0 | 0.00 | 0.55 | 0.38 | 83 | 1015.2 |
| 20260507135505 | 51 | 346 | 2.0 | 5.0 | 0.00 | 0.55 | 0.38 | 83 | 1015.2 |
| 20260507135005 | 51 | 357 | 2.0 | 5.0 | 0.00 | 0.55 | 0.38 | 82 | 1015.2 |
| 20260507134505 | 51 | 21 | 4.0 | 7.0 | 0.00 | 0.55 | 0.38 | 83 | 1015.1 |
| 20260507134008 | 51 | 1 | 2.0 | 5.0 | 0.00 | 0.55 | 0.38 | 84 | 1015.2 |
| 20260507133504 | 50 | 8 | 3.0 | 3.0 | 0.00 | 0.55 | 0.38 | 84 | 1015.2 |
| 20260507133005 | 51 | 349 | 3.0 | 3.0 | 0.00 | 0.55 | 0.38 | 84 | 1015.1 |
| 20260507132505 | 51 | 316 | 3.0 | 5.0 | 0.00 | 0.55 | 0.38 | 84 | 1015.1 |
| 20260507132006 | 50 | 334 | 1.0 | 3.0 | 0.00 | 0.55 | 0.38 | 85 | 1015.1 |
| 20260507131505 | 50 | 13 | 1.0 | 5.0 | 0.00 | 0.55 | 0.38 | 85 | 1015.0 |
| 20260507131005 | 50 | 273 | 2.0 | 3.0 | 0.00 | 0.55 | 0.38 | 85 | 1015.0 |
| 20260507130505 | 50 | 327 | 1.0 | 3.0 | 0.00 | 0.55 | 0.38 | 86 | 1014.9 |
| 20260507130006 | 50 | 244 | 1.0 | 3.0 | 0.00 | 0.55 | 0.38 | 85 | 1014.9 |
| 20260507124505 | 50 | 225 | 2.0 | 5.0 | 0.00 | 0.55 | 0.38 | 85 | 1014.8 |
| 20260507123505 | 50 | 277 | 1.0 | 5.0 | 0.00 | 0.55 | 0.38 | 88 | 1014.7 |
| 20260507123005 | 49 | 205 | 2.0 | 3.0 | 0.00 | 0.55 | 0.38 | 88 | 1014.7 |
| 20260507122505 | 49 | 224 | 1.0 | 3.0 | 0.00 | 0.55 | 0.38 | 87 | 1014.7 |
| 20260507122005 | 48 | 211 | 1.0 | 3.0 | 0.00 | 0.55 | 0.38 | 88 | 1014.7 |
| 20260507121505 | 48 | 211 | 1.0 | 3.0 | 0.00 | 0.55 | 0.38 | 86 | 1014.6 |
| 20260507121004 | 48 | 290 | 3.0 | 6.0 | 0.00 | 0.55 | 0.38 | 86 | 1014.6 |
| 20260507120505 | 48 | 317 | 3.0 | 8.0 | 0.00 | 0.55 | 0.38 | 86 | 1014.6 |
| 20260507120006 | 49 | 305 | 1.0 | 3.0 | 0.00 | 0.55 | 0.38 | 86 | 1014.5 |
| 20260507115505 | 49 | 312 | 3.0 | 6.0 | 0.00 | 0.55 | 0.38 | 86 | 1014.5 |
| 20260507115005 | 48 | 324 | 1.0 | 8.0 | 0.00 | 0.55 | 0.38 | 86 | 1014.5 |
| 20260507114507 | 49 | 303 | 3.0 | 6.0 | 0.00 | 0.55 | 0.38 | 87 | 1014.5 |
| 20260507114005 | 49 | 322 | 0.0 | 2.0 | 0.00 | 0.55 | 0.38 | 86 | 1014.4 |
| 20260507113505 | 49 | 325 | 1.0 | 3.0 | 0.00 | 0.55 | 0.38 | 87 | 1014.4 |
| 20260507113005 | 49 | 296 | 1.0 | 3.0 | 0.00 | 0.55 | 0.38 | 87 | 1014.4 |
| 20260507112006 | 49 | 230 | 1.0 | 7.0 | 0.00 | 0.55 | 0.38 | 85 | 1014.3 |
| 20260507111506 | 50 | 208 | 2.0 | 7.0 | 0.00 | 0.55 | 0.38 | 85 | 1014.3 |
| 20260507110505 | 50 | 210 | 3.0 | 5.0 | 0.00 | 0.55 | 0.38 | 86 | 1014.2 |
| 20260507110006 | 50 | 214 | 2.0 | 3.0 | 0.00 | 0.55 | 0.38 | 87 | 1014.2 |
| 20260507105504 | 49 | 232 | 1.0 | 6.0 | 0.00 | 0.55 | 0.38 | 86 | 1014.2 |
| 20260507105006 | 49 | 258 | 2.0 | 8.0 | 0.00 | 0.55 | 0.38 | 87 | 1014.1 |
| 20260507104506 | 49 | 298 | 1.0 | 3.0 | 0.00 | 0.55 | 0.38 | 88 | 1014.1 |
| 20260507104005 | 49 | 206 | 1.0 | 3.0 | 0.00 | 0.55 | 0.38 | 88 | 1014.0 |
| 20260507103504 | 48 | 204 | 3.0 | 5.0 | 0.00 | 0.55 | 0.38 | 89 | 1014.0 |
| 20260507103005 | 48 | 236 | 1.0 | 3.0 | 0.00 | 0.55 | 0.38 | 88 | 1014.1 |
| 20260507102504 | 48 | 294 | 3.0 | 7.0 | 0.00 | 0.55 | 0.38 | 88 | 1014.1 |
| 20260507101506 | 47 | 313 | 1.0 | 5.0 | 0.00 | 0.55 | 0.38 | 88 | 1014.0 |
| 20260507101005 | 47 | 296 | 2.0 | 3.0 | 0.00 | 0.55 | 0.38 | 88 | 1014.0 |
| 20260507095505 | 47 | 330 | 2.0 | 5.0 | 0.00 | 0.55 | 0.38 | 88 | 1013.9 |
| 20260507095005 | 48 | 318 | 2.0 | 7.0 | 0.00 | 0.55 | 0.38 | 88 | 1013.8 |
| 20260507094504 | 48 | 9 | 2.0 | 3.0 | 0.00 | 0.55 | 0.38 | 88 | 1013.8 |
| 20260507094006 | 48 | 301 | 2.0 | 3.0 | 0.00 | 0.55 | 0.38 | 88 | 1013.7 |
| 20260507093505 | 48 | 302 | 2.0 | 7.0 | 0.00 | 0.55 | 0.38 | 88 | 1013.6 |
| 20260507093005 | 48 | 318 | 1.0 | 5.0 | 0.00 | 0.55 | 0.38 | 89 | 1013.6 |
| 20260507092505 | 48 | 313 | 0.0 | 3.0 | 0.00 | 0.55 | 0.38 | 89 | 1013.6 |
| 20260507092005 | 47 | 340 | 1.0 | 5.0 | 0.00 | 0.55 | 0.38 | 88 | 1013.5 |
| 20260507091505 | 47 | 320 | 1.0 | 3.0 | 0.00 | 0.55 | 0.38 | 88 | 1013.4 |
| 20260507091005 | 47 | 273 | 2.0 | 7.0 | 0.00 | 0.55 | 0.38 | 89 | 1013.4 |
| 20260507090505 | 47 | 319 | 2.0 | 3.0 | 0.00 | 0.55 | 0.38 | 89 | 1013.2 |
| 20260507090006 | 47 | 299 | 3.0 | 7.0 | 0.00 | 0.55 | 0.38 | 89 | 1013.2 |
| 20260507085504 | 47 | 346 | 2.0 | 10.0 | 0.00 | 0.55 | 0.38 | 89 | 1013.2 |
| 20260507085005 | 47 | 340 | 3.0 | 7.0 | 0.00 | 0.55 | 0.38 | 89 | 1013.2 |
| 20260507084505 | 47 | 315 | 1.0 | 6.0 | 0.00 | 0.55 | 0.38 | 89 | 1013.1 |
| 20260507084005 | 47 | 1 | 1.0 | 6.0 | 0.00 | 0.55 | 0.38 | 89 | 1013.1 |
| 20260507083504 | 46 | 339 | 5.0 | 9.0 | 0.00 | 0.55 | 0.38 | 89 | 1013.0 |
| 20260507083005 | 47 | 347 | 3.0 | 7.0 | 0.00 | 0.55 | 0.38 | 89 | 1013.0 |
| 20260507082504 | 47 | 330 | 2.0 | 6.0 | 0.00 | 0.55 | 0.38 | 89 | 1013.0 |
| 20260507082005 | 47 | 6 | 5.0 | 10.0 | 0.00 | 0.55 | 0.38 | 89 | 1012.9 |
| 20260507081505 | 47 | 329 | 2.0 | 7.0 | 0.00 | 0.55 | 0.38 | 89 | 1012.8 |
| 20260507081005 | 47 | 311 | 1.0 | 3.0 | 0.00 | 0.55 | 0.38 | 89 | 1012.8 |
| 20260507080505 | 47 | 317 | 3.0 | 5.0 | 0.00 | 0.55 | 0.38 | 89 | 1012.7 |
| 20260507080005 | 47 | 250 | 1.0 | 3.0 | 0.00 | 0.55 | 0.38 | 89 | 1012.7 |
| 20260507075504 | 47 | 315 | 3.0 | 3.0 | 0.00 | 0.55 | 0.38 | 89 | 1012.7 |
| 20260507075005 | 47 | 353 | 2.0 | 3.0 | 0.01 | 0.55 | 0.38 | 89 | 1012.6 |
| 20260507074505 | 47 | 300 | 3.0 | 3.0 | 0.01 | 0.55 | 0.38 | 90 | 1012.4 |
| 20260507074005 | 47 | 342 | 1.0 | 3.0 | 0.01 | 0.55 | 0.38 | 90 | 1012.4 |
| 20260507073505 | 47 | 333 | 1.0 | 7.0 | 0.01 | 0.55 | 0.38 | 90 | 1012.4 |
| 20260507073005 | 47 | 263 | 1.0 | 3.0 | 0.02 | 0.55 | 0.38 | 90 | 1012.3 |
| 20260507072505 | 47 | 330 | 2.0 | 6.0 | 0.02 | 0.55 | 0.38 | 90 | 1012.3 |
| 20260507072004 | 47 | 340 | 1.0 | 3.0 | 0.02 | 0.55 | 0.38 | 90 | 1012.2 |
| 20260507071504 | 47 | 279 | 0.0 | 3.0 | 0.02 | 0.55 | 0.38 | 90 | 1012.1 |
| 20260507071005 | 46 | 317 | 1.0 | 3.0 | 0.02 | 0.55 | 0.38 | 90 | 1012.1 |
| 20260507070009 | 46 | 313 | 2.0 | 7.0 | 0.04 | 0.55 | 0.38 | 90 | 1012.0 |
| 20260507065005 | 47 | 336 | 1.0 | 2.0 | 0.03 | 0.54 | 0.37 | 90 | 1011.9 |
| 20260507064505 | 47 | 265 | 1.0 | 3.0 | 0.04 | 0.54 | 0.37 | 90 | 1011.8 |
| 20260507064005 | 46 | 274 | 3.0 | 7.0 | 0.04 | 0.54 | 0.37 | 90 | 1011.9 |
| 20260507063504 | 46 | 340 | 1.0 | 6.0 | 0.04 | 0.54 | 0.37 | 90 | 1011.8 |
| 20260507063005 | 46 | 278 | 1.0 | 5.0 | 0.04 | 0.54 | 0.36 | 90 | 1011.8 |
| 20260507062504 | 46 | 321 | 2.0 | 3.0 | 0.04 | 0.54 | 0.36 | 90 | 1011.8 |
| 20260507062005 | 46 | 316 | 2.0 | 3.0 | 0.04 | 0.54 | 0.36 | 91 | 1011.8 |
| 20260507061505 | 46 | 24 | 2.0 | 3.0 | 0.03 | 0.53 | 0.35 | 90 | 1011.6 |
| 20260507061004 | 46 | 355 | 1.0 | 2.0 | 0.03 | 0.53 | 0.35 | 90 | 1011.6 |